Weather History for Deming, NM

Change the Weather History Date:

Saturday, June 22, 2013

  Actual Average Record
Temperature  
Mean Temperature 80 °F 79 °F  
Max Temperature 100 °F 97 °F 107 °F (1953)
Min Temperature 59 °F 61 °F 45 °F (1991)
Cooling Degree Days 14    
Growing Degree Days 30 (Base 50)    
Moisture  
Dew Point 21 °F    
Average Humidity 12    
Maximum Humidity 16    
Minimum Humidity 8    
Precipitation  
Precipitation 0.00 in 0.03 in 0.21 in (1950)
Month to date precipitation T 0.32  
Year to date precipitation 0.51 2.73  
Sea Level Pressure  
Sea Level Pressure 29.73 in    
Wind  
Wind Speed 6 mph (WSW)    
Max Wind Speed 30 mph    
Max Gust Speed 39 mph    
Visibility 10 miles    
Events      
T = Trace of Precipitation, MM = Missing Value Source: NWS Daily Summary

Daily Weather History Graph

Daily Weather History Graph

Search for Another Location

Airport:

Trip Planner

Search our weather history database for the weather conditions in past years. The results will help you decide how hot, cold, wet, or windy it might be!

Date:

Astronomy

Jun. 22, 2013 Rise Set
Actual Time 6:04 AM MDT 8:21 PM MDT
Civil Twilight 5:36 AM MDT 8:49 PM MDT
Nautical Twilight 5:01 AM MDT 9:24 PM MDT
Astronomical Twilight 4:24 AM MDT 10:01 PM MDT
Moon 7:42 PM MDT (6/22) 5:17 AM MDT (6/22)
Length of Visible Light 15h 12m
Length of Day
14h 16m
Waxing Gibbous, 99% of the Moon is Illuminated
Jun 22
Waxing Gibbous
Jun 23
Full
Jun 29
Last Quarter
Jul 8
New
Jul 15
First Quarter

Hourly Weather History & Observations

Time (MDT) Temp. Dew Point Humidity Pressure Visibility Wind Dir Wind Speed Gust Speed Precip Events Conditions
12:53 AM 72.0 °F 15.1 °F 11% 29.73 in 10.0 mi Calm Calm - N/A   Clear
1:53 AM 70.0 °F 15.1 °F 12% 29.72 in 10.0 mi SW 5.8 mph - N/A   Clear
2:53 AM 68.0 °F 16.0 °F 14% 29.73 in 10.0 mi Calm Calm - N/A   Clear
3:53 AM 69.1 °F 15.1 °F 13% 29.73 in 10.0 mi Calm Calm - N/A   Clear
4:53 AM 62.1 °F 16.0 °F 17% 29.76 in 10.0 mi WSW 5.8 mph - N/A   Clear
5:53 AM 61.0 °F 14.0 °F 16% 29.78 in 10.0 mi WSW 3.5 mph - N/A   Clear
6:53 AM 61.0 °F 12.9 °F 15% 29.80 in 10.0 mi Calm Calm - N/A   Clear
7:53 AM 72.0 °F 16.0 °F 12% 29.80 in 10.0 mi South 3.5 mph - N/A   Clear
8:53 AM 79.0 °F 17.1 °F 10% 29.80 in 10.0 mi Variable 3.5 mph - N/A   Clear
9:53 AM 84.9 °F 24.1 °F 11% 29.80 in 10.0 mi Variable 4.6 mph - N/A   Clear
10:53 AM 90.0 °F 32.0 °F 13% 29.78 in 10.0 mi SSW 6.9 mph - N/A   Clear
11:53 AM 93.0 °F 34.0 °F 12% 29.78 in 10.0 mi Variable 6.9 mph 17.3 mph N/A   Clear
12:53 PM 97.0 °F 30.9 °F 10% 29.75 in 10.0 mi WSW 16.1 mph 26.5 mph N/A   Clear
1:53 PM 97.0 °F 30.0 °F 9% 29.73 in 10.0 mi West 13.8 mph 25.3 mph N/A   Clear
2:53 PM 98.1 °F 28.0 °F 8% 29.70 in 9.0 mi West 20.7 mph 31.1 mph N/A   Clear
3:53 PM 98.1 °F 28.0 °F 8% 29.68 in 8.0 mi West 20.7 mph 33.4 mph N/A   Clear
4:53 PM 96.1 °F 25.0 °F 8% 29.67 in 10.0 mi West 23.0 mph 28.8 mph N/A   Clear
5:53 PM 96.1 °F 24.1 °F 8% 29.65 in 10.0 mi WNW 18.4 mph 26.5 mph N/A   Clear
6:53 PM 95.0 °F 23.0 °F 8% 29.65 in 10.0 mi West 11.5 mph 21.9 mph N/A   Clear
7:53 PM 91.9 °F 18.0 °F 7% 29.65 in 10.0 mi West 13.8 mph 23.0 mph N/A   Clear
8:53 PM 87.1 °F 19.9 °F 8% 29.66 in 10.0 mi WNW 10.4 mph - N/A   Clear
9:53 PM 82.0 °F 19.0 °F 10% 29.68 in 10.0 mi WNW 9.2 mph - N/A   Clear
10:53 PM 77.0 °F 17.1 °F 10% 29.70 in 10.0 mi NW 5.8 mph - N/A   Clear
11:53 PM 69.1 °F 14.0 °F 12% 29.73 in 10.0 mi South 5.8 mph - N/A   Clear